Idabel, OK

10:22 AM CST on February 12, 2016 (GMT -0600)
Stone Haven | | Change Station
CLOSE
Current Station
Personal Weather Station
Location: Idabel, OK
Elevation: 489 ft
Nearby Weather Stations

Elev 489 ft 33.87 °N, 94.83 °W | Updated 4 seconds ago

Clear
Clear
54.8 °F
Feels Like 54.8 °F
N
2.0
Wind Variable Wind from North
Gusts 2.0 mph

Today
High -- | Low -- °F
--% Chance of Precip.
Yesterday
High -- | Low -- °F
Precip. -- in
Pressure 30.29 in
Visibility 10.0 miles
Clouds Clear
Dew Point 35 °F
Humidity 47%
Rainfall 0.00 in
Snow Depth Not available.
7:07 AM 5:59 PM
Waxing Crescent, 21% visible
METAR K4O4 121615Z AUTO 36003KT 10SM CLR 12/M02 A3029 RMK AO2
Pressure 30.29 in
Visibility 10.0 miles
Clouds Clear
Dew Point 35 °F
Humidity 47%
Rainfall 0.00 in
Snow Depth Not available.
7:07 AM 5:59 PM
Waxing Crescent, 21% visible
METAR K4O4 121615Z AUTO 36003KT 10SM CLR 12/M02 A3029 RMK AO2

10-Day Weather Forecast

Almanac

Astronomy

Feb. 12, 2016 Rise Set
Actual Time
Civil Twilight
Nautical Twilight
Astronomical Twilight
Moon
Length of Visible Light
Length of Day
Tomorrow will be .
, % of the Moon is Illuminated

Today's Extremes

State Highs State Lows

Community

WunderPhotos

Upload Photos

1,892,350 photos uploaded!

WunderBlog® & News

Nearby

Air Quality

  Air Quality AQ Index Pollutant
Not available.

Snow Depth

Station Depth Elevation

Earthquake Activity

City Distance Mag. Time & Date
Minimum magnitude displayed is 2.5.

Coastal Water Temperatures

Place Temperature

Stations

Nearby Weather Stations

Station Location Temp. Windchill Dew Point Humidity Wind Precip. Elev Updated Type
                   

Watches & Warnings

There are currently no watches in effect.